Location: Asheville, NC
(35.6000°N, 82.5500°W)
Time: 02:22:51
(UTC-04:00)

Vanguard 2 Rocket - Pass Details

Date: 14 March 2018
Orbit: 553 x 3328 km, 32.9° (Epoch: 19 June)

Event Time Altitude Azimuth Distance (km) Brightness Sun altitude
Rises 17:41:43 0° 236° (WSW) 2,799 10.8 22.1°
Reaches altitude 10° 17:44:08 10° 227° (SW) 1,826 9.9 21.6°
Maximum altitude 17:47:41 33° 161° (SSE) 938 7.2 20.9°
Drops below altitude 10° 17:51:37 10° 95° (E) 2,020 8.2 20.2°
Sets 17:54:25 0° 86° (E) 3,155 9.1 19.6°
